Regional Weather Roundup
Issued by NWS

Home | Current Version | Previous Version | Text Only | Print | Product List | Glossary On
Versions: 1 2 3 4 5 6 7 8 9 10 11 12 13 14 15 16 17 18 19 20 21 22 23 24 25 26 27 28 29 30 31 32 33 34 35 36 37 38 39 40 41 42 43 44 45 46 47 48 49 50
000
ASUS42 KKEY 180010
RWRKEY

FLORIDA REGIONAL WEATHER ROUNDUP FOR THE FLORIDA KEYS
NATIONAL WEATHER SERVICE KEY WEST FLORIDA
700 PM EST WED DEC 17 2014

...SOUTH FLORIDA AND THE KEYS...

CITY           SKY/WX    TMP DP  RH WIND       PRES   REMARKS
FORT MYERS     CLEAR     67  59  75 CALM      30.13R
SW REGIONAL AP CLEAR     66  53  63 CALM      30.13S
NAPLES         CLEAR     66  60  81 CALM      30.13S
MIAMI          CLEAR     71  55  56 S3        30.14R
WEST KENDALL   CLEAR     69  57  65 S3        30.14R
HOMESTEAD      CLEAR     64  58  81 SW5       30.14R
MARATHON       CLEAR     65  63  93 CALM      30.14R
BOCA CHICA NAS CLEAR     66  61  84 CALM      30.14R
KEY WEST INTL  CLEAR     68  62  81 NE3       30.14R

...INTERNATIONAL WEATHER...

CITY           SKY/WX    TMP DP  RH WIND       PRES   REMARKS
NASSAU BAHAMAS   N/A     68  61  77 CALM      30.15R
CANCUN MEXICO  PTCLDY    70  59  68 NE3       30.09R
COZUMEL MEXICO PTCLDY    66  59  77 CALM      30.08R

ADJACENT COASTAL WATERS...

STATION/POSITION TIME  SKY/WX   TEMP    WIND        PRES    WAVE
                                AIR SEA DIR/SP/G            HT/PER
                 (UTC)          (F)     (DEG/KT/KT) (MB)    (FT/S)
PULASKI SHOAL LI 2300            70      80/  4/  4 1020.1S
SAND KEY         NOT AVBL
SOMBRERO KEY     0000            72      40/  2/  3 1021.3R
LONG KEY         2300            68 68   CALM  /  1 1020.8R
MOLASSES REEF    0000            74 78  100/  3/  3 1020.5R
FOWEY ROCKS      2300            74 77  120/  5/  6 1020.1R
Buoy 42080       NOT AVBL

$$



USA.gov is the U.S. government's official web portal to all federal, state and local government web resources and services.